This is the latest recevied weather packets stored in our database for station/object N2PPN. If no packets are shown the sender has not sent any weather packets the latest 10 day(s).
| Time | Temp. | Humidity | Pressure | Rain* | Wind** | Luminosity | Snow |
|---|---|---|---|---|---|---|---|
| 1777923931 | 16.67° C | 63% | 1013.9 hPa | 0 mm | - | 536 W/m² | - |
| 1777923626 | 17.22° C | 64% | 1013.9 hPa | 0 mm | - | 550 W/m² | - |
| 1777923323 | 17.22° C | 64% | 1013.9 hPa | 0 mm | - | 559 W/m² | - |
| 1777923022 | 17.22° C | 63% | 1014.1 hPa | 0 mm | - | 572 W/m² | - |
| 1777922720 | 17.22° C | 62% | 1014.1 hPa | 0 mm | - | 582 W/m² | - |
| 1777922418 | 17.78° C | 60% | 1014.1 hPa | 0 mm | - | 588 W/m² | - |
| 1777922115 | 17.78° C | 59% | 1014.1 hPa | 0 mm | - | 598 W/m² | - |
| 1777921811 | 17.78° C | 59% | 1014.3 hPa | 0 mm | - | 608 W/m² | - |
| 1777921507 | 17.22° C | 59% | 1014.3 hPa | 0 mm | - | 618 W/m² | - |
| 1777921203 | 17.78° C | 59% | 1014.2 hPa | 0 mm | - | 628 W/m² | - |
| 1777920901 | 17.78° C | 58% | 1014.2 hPa | 0 mm | - | 635 W/m² | - |
| 1777920597 | 17.78° C | 59% | 1014.3 hPa | 0 mm | - | 639 W/m² | - |
| 1777920293 | 17.78° C | 58% | 1014.3 hPa | 0 mm | - | 649 W/m² | - |
| 1777919988 | 17.78° C | 59% | 1014.5 hPa | 0 mm | - | 664 W/m² | - |
| 1777919686 | 17.78° C | 59% | 1014.4 hPa | 0 mm | - | 670 W/m² | - |
| 1777919384 | 17.78° C | 59% | 1014.5 hPa | 0 mm | - | 673 W/m² | - |
| 1777919080 | 18.33° C | 57% | 1014.5 hPa | 0 mm | - | 680 W/m² | - |
| 1777918778 | 18.33° C | 57% | 1014.4 hPa | 0 mm | - | 675 W/m² | - |
| 1777918475 | 18.33° C | 56% | 1014.6 hPa | 0 mm | - | 691 W/m² | - |
| 1777918173 | 17.22° C | 56% | 1014.6 hPa | 0 mm | - | 695 W/m² | - |
| 1777917872 | 17.78° C | 57% | 1014.8 hPa | 0 mm | - | 696 W/m² | - |
| 1777917570 | 18.33° C | 56% | 1014.7 hPa | 0 mm | - | 698 W/m² | - |
| 1777917266 | 17.78° C | 57% | 1014.6 hPa | 0 mm | - | 707 W/m² | - |
| 1777916964 | 17.78° C | 59% | 1014.7 hPa | 0 mm | - | 715 W/m² | - |
| 1777916662 | 17.78° C | 58% | 1014.6 hPa | 0 mm | - | 715 W/m² | - |
* Rain latest hour (hover to see other rain measurements)
** Current wind speed in m/s (hover to see current wind gust speed)